Location: Karlsruhe
(49.0131°N, 8.3874°E)
Time: 03:03:07
(UTC+01:00)

ISS - Pass Details

Date: 17 November 2017
Orbit: 402 x 407 km, 51.6° (Epoch: 22 November)

Event Time Altitude Azimuth Distance (km) Brightness Sun altitude
Exits shadow 04:48:20 12° 133° (SE) 1,331 -0.7 -27.8°
Drops below altitude 10° 04:48:38 10° 131° (SE) 1,451 -0.5 -27.7°
Sets 04:50:44 0° 127° (SE) 2,307 0.7 -27.4°
